Location: Gorze? G�rny
(49.8500°N, 19.5000°E)
Time: 04:04:41
(UTC+00:00)

ERS-1 Rocket - Pass Details

Date: 13 May 2021
Orbit: 753 x 757 km, 98.4° (Epoch: 23 June)

Event Time Altitude Azimuth Distance (km) Brightness Sun altitude
Exits shadow 20:49:59 20° 198° (SSW) 1,716 4.4 -17.5°
Maximum altitude 20:53:12 44° 262° (W) 1,047 3.8 -17.7°
Drops below altitude 10° 20:58:01 10° 334° (NNW) 2,295 6.8 -18.0°
Sets 21:00:26 0° 341° (NNW) 3,225 7.9 -18.2°
